Regional Weather Roundup
Issued by NWS

Home | Current Version | Previous Version | Text Only | Print | Product List | Glossary Off
Versions: 1 2 3 4 5 6 7 8 9 10 11 12 13 14 15 16 17 18 19 20 21 22 23 24 25 26 27 28 29 30 31 32 33 34 35 36 37 38 39 40 41 42 43 44 45 46 47 48 49 50

000
ASUS45 KCYS 210310
RWRWY

WYOMING REGIONAL WEATHER ROUNDUP
NATIONAL WEATHER SERVICE CHEYENNE WY
800 PM MST THU NOV 20 2014

NOTE:  "FAIR" INDICATES FEW OR NO CLOUDS BELOW 12,000 FEET
WITH NO SIGNIFICANT WEATHER AND/OR OBSTRUCTIONS TO VISIBILITY.

WYZ001-210400-
YELLOWSTONE NATIONAL PARK

CITY           SKY/WX    TMP DP  RH WIND       PRES   REMARKS
LK YELLOWSTONE   N/A     28  22  78 CALM      30.02F
W YELLOWSTONE  NOT AVBL

$$
WYZ002>013-054>058-071-098>099-210400-
NORTHERN WYOMING

CITY           SKY/WX    TMP DP  RH WIND       PRES   REMARKS
JACKSON        CLOUDY    21  19  93 CALM      30.05S
CODY           CLOUDY    45  21  39 W8        29.88S
GREYBULL       CLOUDY    15  11  83 CALM      29.93S
WORLAND        MOCLDY    17  14  88 SW5       29.91F WCI  10
SHERIDAN       MOCLDY    31  24  75 CALM      29.85F
BUFFALO        MOCLDY    43  18  36 SW7       29.87S
GILLETTE       CLEAR     30  20  66 SE5       29.86F WCI  25
HULETT           N/A    N/A N/A N/A MISG        N/A
NEWCASTLE      FAIR      23  19  86 N3        29.92F

$$
WYZ014>020-022>026-101>103-210400-
CENTRAL WYOMING

CITY           SKY/WX    TMP DP  RH WIND       PRES   REMARKS
BIG PINEY      MOCLDY    21  15  78 E3        30.04S
PINEDALE       PTCLDY    21  18  86 NW6       30.04F WCI  14
DUBOIS         FAIR      30  18  59 NW15G21   29.97S WCI  19
LANDER         CLOUDY    22  17  81 N5        29.93S WCI  16
RIVERTON       CLOUDY    23  15  71 W3        29.94S
CASPER         MOCLDY    37  21  52 SW10      29.93R WCI  30
DOUGLAS        PTCLDY    28  21  75 CALM      29.93S

$$
WYZ021-027>030-104>119-210400-
SOUTHERN WYOMING

CITY           SKY/WX    TMP DP  RH WIND       PRES   REMARKS
EVANSTON       PTCLDY    31  15  52 SW7       30.05S WCI  24
KEMMERER       MOCLDY    30  16  55 CALM      30.04F
FORT BRIDGER   FAIR      32  17  53 SW6       30.07F WCI  26
ROCK SPRINGS   CLOUDY    33  21  61 W12       30.04S WCI  24
DIXON          CLOUDY    32  20  61 CALM      30.09S
RAWLINS        CLOUDY    35  23  61 SW14      30.02S WCI  26
SARATOGA       CLOUDY    36  19  51 CALM      30.04F
LARAMIE        CLOUDY    35  20  54 SW13      29.99F WCI  26
CHEYENNE       CLOUDY    31  16  54 W7        29.98F WCI  24
TORRINGTON     PTCLDY    37  17  44 SW5       29.93S WCI  33
PINE BLUFFS    FAIR      30  12  47 CALM      29.98F

$$


USA.gov is the U.S. government's official web portal to all federal, state and local government web resources and services.